Weather History for KDNL - November, 2012

Change the Weather History Date:

Friday, November 30, 2012

  Actual Average Record
Temperature  
Mean Temperature 53 °F -  
Max Temperature 65 °F 60 °F 77 °F (1998)
Min Temperature 41 °F 42 °F 36 °F (2013)
Degree Days  
Heating Degree Days 12    
Month to date heating degree days 324  
Growing Degree Days 2 (Base 50)    
Moisture  
Dew Point 41 °F    
Average Humidity 63    
Maximum Humidity 76    
Minimum Humidity 47    
Precipitation  
Precipitation 0.00 in - - ()
Month to date precipitation 0.90  
Year to date precipitation 40.25  
Sea Level Pressure  
Sea Level Pressure 30.35 in    
Wind  
Wind Speed 2 mph (ESE)    
Max Wind Speed 7 mph    
Max Gust Speed 9 mph    
Visibility 10 miles    
Events      
Averages and records for this station are not official NWS values.
T = Trace of Precipitation, MM = Missing Value Source: NWS Daily Summary

Daily Weather History Graph

Daily Weather History Graph

Search for Another Location

Airport or City:

Trip Planner

Search our weather history database for the weather conditions in past years. The results will help you decide how hot, cold, wet, or windy it might be!

Date:

Astronomy

Nov. 30, 2012 Rise Set
Actual Time 7:13 AM EST 5:20 PM EST
Civil Twilight 6:46 AM EST 5:47 PM EST
Nautical Twilight 6:15 AM EST 6:18 PM EST
Astronomical Twilight 5:45 AM EST 6:48 PM EST
Moon 7:13 PM EST 8:45 AM EST
Length of Visible Light 11h 00m
Length of Day
10h 06m
Waning Gibbous, 96% of the Moon is Illuminated
Nov 30
Waning Gibbous
Dec 6
Last Quarter
Dec 13
New
Dec 20
First Quarter
Dec 28
Full

Hourly Weather History & Observations

Time (EST) Temp. Windchill Dew Point Humidity Pressure Visibility Wind Dir Wind Speed Gust Speed Precip Events Conditions
12:53 AM 43.0 °F 41.3 °F 30.9 °F 62% 30.39 in 10.0 mi East 3.5 mph - N/A   Clear
1:53 AM 44.1 °F 42.5 °F 32.0 °F 63% 30.38 in 10.0 mi East 3.5 mph - N/A   Clear
2:53 AM 43.0 °F 40.3 °F 32.0 °F 65% 30.38 in 10.0 mi East 4.6 mph - N/A   Clear
3:53 AM 45.0 °F - 34.0 °F 65% 30.37 in 10.0 mi Calm Calm - N/A   Mostly Cloudy
4:53 AM 42.1 °F - 33.1 °F 70% 30.37 in 10.0 mi Calm Calm - N/A   Partly Cloudy
5:53 AM 41.0 °F - 34.0 °F 76% 30.38 in 10.0 mi Calm Calm - N/A   Partly Cloudy
6:53 AM 42.1 °F - 35.1 °F 76% 30.39 in 10.0 mi Calm Calm - N/A   Mostly Cloudy
7:53 AM 42.1 °F - 35.1 °F 76% 30.40 in 10.0 mi Calm Calm - N/A   Mostly Cloudy
8:53 AM 44.1 °F - 36.0 °F 73% 30.40 in 10.0 mi Calm Calm - N/A   Mostly Cloudy
9:53 AM 52.0 °F - 37.0 °F 57% 30.40 in 10.0 mi East 4.6 mph - N/A   Partly Cloudy
10:53 AM 55.0 °F - 37.0 °F 51% 30.40 in 10.0 mi Calm Calm - N/A   Clear
11:53 AM 59.0 °F - 39.9 °F 49% 30.38 in 10.0 mi Variable 3.5 mph - N/A   Mostly Cloudy
12:53 PM 61.0 °F - 44.1 °F 54% 30.35 in 10.0 mi SSE 6.9 mph - N/A   Mostly Cloudy
1:53 PM 62.1 °F - 45.0 °F 53% 30.32 in 10.0 mi Calm Calm - N/A   Partly Cloudy
2:53 PM 63.0 °F - 45.0 °F 52% 30.30 in 10.0 mi Calm Calm - N/A   Overcast
3:53 PM 64.0 °F - 46.9 °F 54% 30.30 in 10.0 mi WSW 3.5 mph - N/A   Clear
4:53 PM 63.0 °F - 46.9 °F 56% 30.30 in 10.0 mi Calm Calm - N/A   Partly Cloudy
5:53 PM 62.1 °F - 46.9 °F 58% 30.30 in 10.0 mi Calm Calm - N/A   Overcast
6:53 PM 61.0 °F - 48.0 °F 62% 30.31 in 10.0 mi Calm Calm - N/A   Overcast
7:53 PM 60.1 °F - 48.0 °F 64% 30.32 in 10.0 mi Calm Calm - N/A   Overcast
8:53 PM 59.0 °F - 46.9 °F 64% 30.32 in 10.0 mi Calm Calm - N/A   Overcast
9:53 PM 57.9 °F - 48.0 °F 70% 30.32 in 10.0 mi East 3.5 mph - N/A   Overcast
10:53 PM 57.0 °F - 48.0 °F 72% 30.33 in 10.0 mi Calm Calm - N/A   Overcast
11:53 PM 57.0 °F - 48.0 °F 72% 30.32 in 10.0 mi ESE 3.5 mph - N/A   Overcast